Weather reports worldwide

Advertisment
Jersey Airport, United Kingdom (3895): temperature & dewpoint: 13.08.2018 20:00:00 - 19.08.2018 20:00:00 (BST)Jersey Airport, United Kingdom (3895): temperature -20cm & temperature -100cm: 13.08.2018 20:00:00 - 19.08.2018 20:00:00 (BST)Jersey Airport, United Kingdom (3895): wind speed: 13.08.2018 20:00:00 - 19.08.2018 20:00:00 (BST)Jersey Airport, United Kingdom (3895): wind direction: 13.08.2018 20:00:00 - 19.08.2018 20:00:00 (BST)Jersey Airport, United Kingdom (3895): reduced air pressure: 13.08.2018 20:00:00 - 19.08.2018 20:00:00 (BST)Jersey Airport, United Kingdom (3895): visibility: 13.08.2018 20:00:00 - 19.08.2018 20:00:00 (BST)Jersey Airport, United Kingdom (3895): sunshine duration: 13.08.2018 20:00:00 - 19.08.2018 20:00:00 (BST)Jersey Airport, United Kingdom (3895): precipitation: 13.08.2018 20:00:00 - 19.08.2018 20:00:00 (BST)
Date & Time tt [°C] td [°C] tt -20cm [°C] tt -100cm [°C] ff [km/h] ff [kn] dd ppp [hPa] vv [km] sd [min] rr [mm]
19.08.2018 20:00:00 17,5 17,3 - - 22 12 W 1022,4 0,6 0 0,0
19.08.2018 19:00:00 17,7 17,4 - - 22 12 W 1022,5 0,9 0 0,0
19.08.2018 18:00:00 17,9 17,4 - - 26 14 W 1022,6 1,5 0 0,0
19.08.2018 17:00:00 18,1 17,4 - - 26 14 W 1022,8 10 0 0,0
19.08.2018 16:00:00 18,2 17,2 - - 24 13 W 1022,9 10 0 0,0
19.08.2018 15:00:00 18,3 16,9 - - 26 14 W 1023,2 10 0 0,0
19.08.2018 14:00:00 18,4 17,0 - - 26 14 WSW 1023,3 10 0 0,0
19.08.2018 13:00:00 18,0 16,5 - - 28 15 WSW 1023,2 10 0 0,0
19.08.2018 12:00:00 17,6 16,1 - - 29 16 W 1023,3 10 0 0,0
19.08.2018 11:00:00 17,5 15,8 - - 22 12 WSW 1023,4 10 0 0,0
19.08.2018 10:00:00 17,3 15,2 18,4 18,0 18 10 SW 1023,2 10 0 0,0
19.08.2018 09:00:00 17,3 15,1 - - 28 15 WSW 1023,0 10 0 0,0
19.08.2018 08:00:00 16,8 15,2 - - 26 14 WSW 1022,9 10 0 0,0
19.08.2018 07:00:00 16,0 14,8 - - 18 10 WSW 1022,9 16 0 0,0
19.08.2018 06:00:00 15,7 14,7 - - 18 10 WSW 1022,8 10 0 0,0
19.08.2018 05:00:00 15,3 14,4 - - 21 11 WSW 1022,8 10 0 0,0
19.08.2018 04:00:00 15,4 14,4 - - 22 12 WSW 1023,2 10 0 0,0
19.08.2018 03:00:00 16,3 14,8 - - 26 14 WSW 1023,6 10 0 0,0
19.08.2018 02:00:00 16,1 14,7 - - 21 11 W 1023,7 10 0 0,0
19.08.2018 01:00:00 15,9 14,7 - - 16 9 WSW 1023,9 10 - 0,0
19.08.2018 00:00:00 16,1 14,3 - - 16 9 W 1024,0 10 0 0,0
18.08.2018 23:00:00 16,1 13,9 - - 15 8 W 1024,0 10 0 0,0
18.08.2018 22:00:00 16,1 14,1 - - 13 7 W 1024,1 10 0 0,0
18.08.2018 21:00:00 16,2 14,2 - - 11 6 W 1024,2 10 0 0,0
18.08.2018 20:00:00 16,9 14,3 - - 15 8 W 1023,8 10 54 0,0
18.08.2018 19:00:00 17,6 14,3 - - 21 11 W 1023,8 10 12 0,0
18.08.2018 18:00:00 17,9 14,6 - - 24 13 W 1024,0 10 0 0,0
18.08.2018 17:00:00 18,3 14,3 - - 26 14 W 1024,0 10 0 0,0
18.08.2018 16:00:00 17,9 14,1 - - 22 12 W 1024,2 10 0 0,0
18.08.2018 15:00:00 18,2 14,3 - - 28 15 W 1024,7 10 0 0,0
18.08.2018 14:00:00 18,6 14,4 - - 29 16 W 1024,8 10 24 0,0
18.08.2018 13:00:00 19,0 14,8 - - 28 15 W 1024,6 10 0 0,0
18.08.2018 12:00:00 18,5 14,8 - - 26 14 W 1024,7 10 0 0,0
18.08.2018 11:00:00 17,5 14,5 - - 22 12 W 1024,7 10 0 0,0
18.08.2018 10:00:00 17,3 14,4 18,4 18,2 24 13 WSW 1024,6 10 0 0,0
18.08.2018 09:00:00 16,9 14,7 - - 16 9 W 1024,4 10 0 0,0
18.08.2018 08:00:00 16,5 14,2 - - 18 10 W 1024,1 10 12 0,0
18.08.2018 07:00:00 15,9 14,0 - - 18 10 W 1023,8 10 0 0,0
18.08.2018 06:00:00 15,5 13,3 - - 21 11 W 1023,6 10 0 0,0
18.08.2018 05:00:00 15,4 13,5 - - 16 9 W 1023,5 10 0 0,0
18.08.2018 04:00:00 15,5 13,7 - - 18 10 W 1023,6 10 0 0,0
18.08.2018 03:00:00 15,5 13,7 - - 16 9 W 1023,6 10 0 0,0
18.08.2018 02:00:00 15,7 13,5 - - 22 12 W 1023,7 10 0 0,0
18.08.2018 01:00:00 15,6 13,8 - - 18 10 W 1024,5 10 - 0,0
18.08.2018 00:00:00 15,7 13,4 - - 21 11 W 1024,5 10 0 0,0
17.08.2018 23:00:00 15,7 13,4 - - 16 9 W 1024,4 10 0 0,0
17.08.2018 22:00:00 15,8 12,9 - - 16 9 W 1024,4 10 0 0,0
17.08.2018 21:00:00 15,6 12,6 - - 15 8 W 1024,1 10 0 0,0
17.08.2018 20:00:00 16,4 12,6 - - 18 10 W 1023,7 10 24 0,0
17.08.2018 19:00:00 16,8 12,1 - - 18 10 W 1023,4 10 48 0,0
17.08.2018 18:00:00 18,0 11,7 - - 22 12 W 1023,4 10 60 0,0
17.08.2018 17:00:00 18,1 11,2 - - 22 12 W 1023,1 10 60 0,0
17.08.2018 16:00:00 18,3 12,0 - - 21 11 W 1023,5 10 60 0,0
17.08.2018 15:00:00 18,8 12,0 - - 21 11 W 1023,7 10 54 0,0
17.08.2018 14:00:00 18,8 12,1 - - 18 10 W 1023,8 10 60 0,0
17.08.2018 13:00:00 18,7 13,3 - - 21 11 W 1023,6 10 60 0,0
17.08.2018 12:00:00 18,9 13,8 - - 18 10 W 1023,3 10 54 0,0
17.08.2018 11:00:00 17,6 13,1 - - 18 10 W 1023,3 10 42 0,0
17.08.2018 10:00:00 17,2 12,9 18,2 18,2 16 9 WNW 1022,7 10 42 0,0
17.08.2018 09:00:00 16,8 13,4 - - 15 8 WNW 1022,1 10 48 0,0
17.08.2018 08:00:00 16,0 13,5 - - 11 6 NW 1021,5 10 42 0,0
17.08.2018 07:00:00 13,4 12,2 - - 8 4 NW 1021,2 10 0 0,0
17.08.2018 06:00:00 13,1 11,7 - - 9 5 NW 1020,6 10 0 0,0
17.08.2018 05:00:00 13,6 11,9 - - 11 6 NW 1020,2 10 0 0,0
17.08.2018 04:00:00 13,8 11,8 - - 11 6 NW 1019,9 10 0 0,0
17.08.2018 03:00:00 13,9 11,9 - - 11 6 NW 1019,8 10 0 0,0
17.08.2018 02:00:00 14,2 12,2 - - 13 7 NW 1019,5 10 0 0,0
17.08.2018 01:00:00 14,6 12,1 - - 15 8 NW 1019,3 10 - 0,0
17.08.2018 00:00:00 15,0 12,0 - - 15 8 NW 1019,2 10 0 0,0
16.08.2018 23:00:00 15,0 12,3 - - 13 7 WNW 1018,8 10 0 0,0
16.08.2018 22:00:00 15,2 12,9 - - 16 9 WNW 1018,3 10 0 0,0
16.08.2018 21:00:00 15,1 12,8 - - 16 9 WNW 1017,8 10 6 0,0
16.08.2018 20:00:00 16,1 13,0 - - 16 9 WNW 1017,3 10 60 0,0
16.08.2018 19:00:00 17,0 13,8 - - 18 10 WNW 1017,1 10 48 0,0
16.08.2018 18:00:00 17,3 15,5 - - 21 11 W 1016,8 10 6 0,0
16.08.2018 17:00:00 16,6 15,5 - - 18 10 W 1016,6 10 0 0,0
16.08.2018 16:00:00 15,5 15,1 - - 13 7 W 1016,5 10 0 1,2
16.08.2018 15:00:00 15,2 14,7 - - 15 8 W 1016,7 6 0 1,8
16.08.2018 14:00:00 16,1 15,3 - - 18 10 W 1016,3 10 0 0,2
16.08.2018 13:00:00 16,3 15,8 - - 18 10 W 1016,1 6 0 0,0
16.08.2018 12:00:00 17,0 16,6 - - 26 14 WSW 1015,9 1,2 0 0,4
16.08.2018 11:00:00 18,3 16,0 - - 26 14 SW 1015,9 10 0 0,0
16.08.2018 10:00:00 17,9 15,4 19,0 18,2 22 12 SW 1016,0 10 0 0,0
16.08.2018 09:00:00 17,6 15,1 - - 21 11 SSW 1015,9 10 0 0,0
16.08.2018 08:00:00 17,5 14,9 - - 21 11 SW 1016,0 10 0 0,0
16.08.2018 07:00:00 17,4 15,4 - - 18 10 WSW 1016,4 10 0 0,0
16.08.2018 06:00:00 17,3 15,4 - - 15 8 SSW 1016,1 10 0 0,0
16.08.2018 05:00:00 17,2 15,2 - - 15 8 SW 1016,5 10 0 0,0
16.08.2018 04:00:00 17,4 15,3 - - 16 9 WSW 1017,1 10 0 0,0
16.08.2018 03:00:00 17,6 16,7 - - 18 10 SW 1017,6 10 0 0,0
16.08.2018 02:00:00 17,6 16,6 - - 15 8 WSW 1018,0 10 0 0,0
16.08.2018 01:00:00 17,5 16,3 - - 16 9 WSW 1018,3 10 - 0,0
16.08.2018 00:00:00 17,0 16,0 - - 13 7 WSW 1018,6 10 0 0,0
15.08.2018 23:00:00 17,2 16,1 - - 13 7 W 1019,2 10 0 0,0
15.08.2018 22:00:00 17,6 16,2 - - 15 8 W 1019,5 10 0 0,0
15.08.2018 21:00:00 17,7 16,2 - - 15 8 WSW 1019,6 10 0 0,0
15.08.2018 20:00:00 18,0 15,8 - - 15 8 WSW 1019,5 10 0 0,0
15.08.2018 19:00:00 18,3 16,0 - - 16 9 W 1019,6 10 0 0,0
15.08.2018 18:00:00 18,6 15,8 - - 18 10 WSW 1020,0 10 0 0,0
15.08.2018 17:00:00 19,1 15,1 - - 16 9 WSW 1020,4 10 0 0,0
15.08.2018 16:00:00 19,0 15,0 - - 16 9 WSW 1020,9 10 0 0,0
15.08.2018 15:00:00 19,1 15,9 - - 24 13 WSW 1021,3 10 0 0,0
15.08.2018 14:00:00 19,5 16,8 - - 22 12 WSW 1021,5 10 0 0,0
15.08.2018 13:00:00 18,6 16,3 - - 18 10 WSW 1021,6 10 0 0,0
15.08.2018 12:00:00 17,7 17,0 - - 22 12 W 1021,9 10 0 0,0
15.08.2018 11:00:00 17,5 16,9 - - 18 10 W 1021,8 4,0 0 0,0
15.08.2018 10:00:00 17,1 16,8 18,9 18,4 21 11 W 1021,8 1,5 0 0,0
15.08.2018 09:00:00 17,3 17,0 - - 21 11 W 1021,7 10 0 0,2
15.08.2018 08:00:00 17,1 16,6 - - 24 13 W 1021,5 2,0 0 0,0
15.08.2018 07:00:00 17,3 16,7 - - 21 11 W 1021,2 10 0 0,0
15.08.2018 06:00:00 17,3 16,6 - - 21 11 W 1021,0 10 0 0,0
15.08.2018 05:00:00 17,2 16,4 - - 22 12 W 1021,1 10 0 0,0
15.08.2018 04:00:00 17,2 16,0 - - 18 10 W 1021,2 10 0 0,0
15.08.2018 03:00:00 17,3 15,3 - - 18 10 W 1021,4 10 0 0,0
15.08.2018 02:00:00 17,3 15,4 - - 21 11 W 1021,5 10 0 0,0
15.08.2018 01:00:00 17,3 14,6 - - 16 9 W 1021,8 10 - 0,0
15.08.2018 00:00:00 17,1 14,5 - - 21 11 W 1022,0 10 0 0,0
14.08.2018 23:00:00 17,1 14,6 - - 22 12 W 1022,0 10 0 0,0
14.08.2018 22:00:00 17,0 15,5 - - 22 12 W 1021,9 10 0 0,0
14.08.2018 21:00:00 17,2 16,1 - - 22 12 W 1021,6 10 0 0,0
14.08.2018 20:00:00 17,3 16,3 - - 22 12 W 1021,2 10 0 0,0
14.08.2018 19:00:00 17,7 16,7 - - 21 11 W 1020,8 10 0 0,0
14.08.2018 18:00:00 18,0 17,0 - - 24 13 W 1021,0 10 0 0,0
14.08.2018 17:00:00 18,3 16,3 - - 21 11 W 1021,2 10 0 0,0
14.08.2018 16:00:00 18,6 16,7 - - 22 12 W 1021,1 10 0 0,0
14.08.2018 15:00:00 18,8 16,6 - - 22 12 W 1021,0 10 12 0,0
14.08.2018 14:00:00 17,8 16,4 - - 24 13 W 1020,9 5 0 0,0
14.08.2018 13:00:00 18,5 16,0 - - 24 13 W 1020,5 10 0 0,0
14.08.2018 12:00:00 18,5 15,3 - - 24 13 W 1020,3 10 18 0,0
14.08.2018 11:00:00 19,2 16,3 - - 18 10 W 1020,0 10 24 0,0
14.08.2018 10:00:00 17,9 15,9 18,7 18,4 21 11 W 1019,5 10 0 0,0
14.08.2018 09:00:00 17,2 15,7 - - 18 10 W 1019,2 10 0 0,0
14.08.2018 08:00:00 16,6 15,6 - - 15 8 WNW 1018,8 10 0 0,0
14.08.2018 07:00:00 16,4 15,4 - - 13 7 WNW 1018,3 10 0 0,0
14.08.2018 06:00:00 16,3 15,4 - - 11 6 WNW 1017,6 10 0 0,0
14.08.2018 05:00:00 16,2 15,7 - - 13 7 WNW 1017,2 10 0 0,0
14.08.2018 04:00:00 15,9 15,3 - - 13 7 WNW 1016,8 10 0 0,0
14.08.2018 03:00:00 16,0 15,3 - - 15 8 WNW 1016,5 10 0 0,0
14.08.2018 02:00:00 16,0 15,2 - - 11 6 WNW 1016,1 10 0 0,0
14.08.2018 01:00:00 16,3 15,5 - - 13 7 WNW 1015,8 10 - 0,0
14.08.2018 00:00:00 16,5 15,8 - - 18 10 WNW 1015,3 10 0 0,0
13.08.2018 23:00:00 16,5 15,9 - - 21 11 W 1014,9 10 0 0,0
13.08.2018 22:00:00 16,6 16,0 - - 21 11 W 1014,4 10 0 0,0
13.08.2018 21:00:00 16,7 15,7 - - 22 12 W 1014,1 10 12 0,0
13.08.2018 20:00:00 17,3 15,4 - - 22 12 W 1013,5 10 36 0,0

tt = temperature
td = dewpoint
tt -20cm = temperature -20cm
tt -100cm = temperature -100cm
ff = wind speed
dd = wind direction
ppp = reduced air pressure
vv = visibility
sd = sunshine duration
rr = precipitation

Next stations